Flag for Germany Weather past 2 weeks in Berlin, Berlin, Germany

Now
60 °F

Cool.


Feels Like: 60 °F
Forecast: 51 / 56 °F
Wind: 3 mph from West

Location: Berlin-Tempelhof

Current Time: Sep 21, 2014 at 8:29:43 AM

Latest Report: Sep 21, 2014 at 8:00 AM


Visibility: N/A

Pressure: 29.87 "Hg

Humidity: 97%

Dew point: 60 °F

Location of BerlinLocation

Historic Weather in Berlin — Graph

°F

Berlin temperature yesterday

Maximum temperature yesterday: 66 °F (at 8:00 PM)
Minimum temperature yesterday: 56 °F (at 5:00 AM)
Average temperature yesterday: 60 °F

Past Weeks' High & Low Weather Summary

 TemperatureHumidityPressure
High81 °F (Sep 7, 4:00 PM)98% (Sep 20, 7:00 AM)30.17 "Hg (Sep 20, 7:00 AM)
Low52 °F (Sep 11, 12:00 AM)39% (Sep 8, 4:00 PM)29.86 "Hg (Sep 21, 7:00 AM)
Average64 °F76%30.02 "Hg
* Reported Sep 6 7:00 AM — Sep 21 7:00 AM, Berlin, Weather by CustomWeather, © 2014

Note: Actual official high and low records may vary slightly from our data, if they occured in-between our weather recording intervals... More about our weather records

Advertising

Berlin weather history for previous 24 hours

 ConditionsComfort  
Time TempWeatherWind HumidityBarometerVisibility
7:00 AM
Sep 21
60 °FCool.2 mph97%29.86 "HgN/A
6:00 AM60 °FCool.2 mph98%29.86 "HgN/A
5:00 AM61 °FCool.1 mph95%29.86 "HgN/A
4:00 AM62 °FCool.3 mph96%29.87 "HgN/A
3:00 AM63 °FMild.5 mph95%29.88 "HgN/A
2:00 AM63 °FMild.2 mph95%29.88 "HgN/A
1:00 AM64 °FMild.2 mph95%29.88 "HgN/A
12:00 AM63 °FMild.1 mph95%29.88 "HgN/A
10:00 PM
Sep 20
63 °FMild.1 mph94%29.89 "HgN/A
9:00 PM65 °FMild.1 mph89%29.89 "HgN/A
8:00 PM66 °FMild.1 mph86%29.90 "HgN/A
3:00 PM65 °FMild.1 mph89%29.92 "HgN/A
2:00 PM65 °FMild.2 mph91%29.94 "HgN/A
1:00 PM63 °FMild.1 mph93%29.94 "HgN/A
12:00 PM62 °FCool.1 mph95%29.94 "HgN/A
11:00 AM61 °FCool.1 mph96%29.94 "HgN/A
10:00 AM59 °FCool.1 mph96%29.94 "HgN/A
9:00 AM58 °FCool.2 mph98%29.94 "HgN/A
8:00 AM58 °FCool.1 mph98%29.94 "HgN/A
Weather by CustomWeather, © 2014

See weather overviewHow to use our weather pages